{"data":{"norad_id":81390,"epoch":"2026-05-20T00:28:20.031456Z","epoch_age_seconds":502046,"freshness":"STALE","line1":"1 81390U          26140.01967629 -.00000203  00000+0 -11522-2 0  9993","line2":"2 81390 103.1041  44.2533 0167263 228.7021 129.9531 12.35583938519643","mean_motion":12.35583938,"eccentricity":0.0167263,"inclination_deg":103.1041,"raan_deg":44.2533,"arg_perigee_deg":228.7021,"mean_anomaly_deg":129.9531,"bstar":-0.0011522,"rev_number":51964,"period_min":116.54408540879,"perigee_km":1393.1824526104,"apogee_km":1657.5756130502,"semimajor_km":7903.5160328303,"source":"CELESTRAK","updated_at":"2026-05-25T13:38:09.451227Z"}}